Location: Bosdarros
(43.2167°N, 0.3667°W)
Time: 21:35:15
(UTC+00:00)

METEOR 2-8 DEB - Pass Details

Date: 29 October 2021
Orbit: 830 x 870 km, 82.5° (Epoch: 27 November)

Event Time Altitude Azimuth Distance (km) Brightness Sun altitude
Rises 20:41:18 0° 349° (NNW) 3,469 ? -40.9°
Reaches altitude 10° 20:43:45 10° 347° (NNW) 2,527 ? -41.3°
Enters shadow 20:43:54 11° 347° (NNW) 2,471 ? -41.3°
